Location: *
(48.6500°N, 8.5833°E)
Time: 08:05:07
(UTC+00:00)

Daily predictions for brighter satellites

Satellite Brightness Start Highest point End
(mag) Time Altitude Azimuth Time Altitude Azimuth Time Altitude Azimuth
ALOS 3.2 16:15:46 10° S 16:20:20 55° W 16:24:57 10° NNW
H-2A R/B 3.2 16:18:56 10° SE 16:22:34 40° ENE 16:26:11 10° N
Feng Yun 1-1 Rocket 4.3 16:17:19 10° SSE 16:22:52 63° ENE 16:28:19 10° N
Cosmos-2242 3.6 16:20:39 10° SSW 16:24:52 60° WNW 16:29:07 10° N
Meteor 2-3 Rocket 3.9 16:21:55 10° N 16:27:37 54° ENE 16:33:17 10° SSE
Cosmos 1238 Rocket 3.6 16:23:44 10° N 16:28:22 38° ENE 16:32:11 10° SE
Cosmos 1943 Rocket 3.6 16:23:49 10° WSW 16:28:59 36° NW 16:34:12 10° NNE
SMAP 3.1 16:25:22 10° SSE 16:29:57 62° ENE 16:34:35 10° N
YAOGAN 6 4.1 16:28:15 10° ESE 16:30:28 16° ENE 16:32:41 10° NNE
Cosmos 1743 Rocket 3.7 16:27:18 10° N 16:31:33 52° ENE 16:35:49 10° SSE
TSX-5 4.4 16:29:35 10° S 16:33:13 42° ESE 16:37:49 10° NE
CZ-4B R/B 4.3 16:28:37 10° S 16:33:45 48° W 16:38:53 10° NNW
IRS-1C Rocket 4.1 16:28:49 10° SSE 16:34:06 83° ENE 16:39:26 10° NNW
Okean O Rocket 3.1 16:30:05 10° S 16:34:16 42° W 16:38:28 10° NNW
Cosmos 2123 Rocket 4.0 16:28:48 10° S 16:34:58 73° E 16:41:09 10° NNE
COBE Rocket 4.5 16:31:53 10° NNE 16:36:21 35° E 16:40:40 10° SSE
Meteor 2-10 Rocket 3.4 16:31:27 10° S 16:36:25 70° E 16:41:26 10° NNE
Cosmos 1689 Rocket 4.3 16:38:25 10° N 16:41:02 26° WNW 16:43:38 10° SW
USA 215 3.6 16:34:54 10° E 16:41:10 50° NNE 16:47:26 10° WNW
Cosmos 1725 Rocket 4.1 16:34:57 10° N 16:41:20 89° WSW 16:47:39 10° S
Envisat 3.3 16:39:02 10° SE 16:43:49 43° ENE 16:48:38 10° N
CZ-4B R/B 4.2 16:41:40 10° NNW 16:43:59 18° WNW 16:46:19 10° WSW
Aureole 2 Rocket 3.8 16:47:10 10° SW 16:50:17 37° WNW 16:53:36 10° N
NOSS 3-1 (C) 4.4 16:47:49 10° SSE 16:52:10 24° ESE 16:55:55 14° ENE
ATLAS 5 CENTAUR R/B 2.5 16:47:16 10° NW 16:52:40 50° NE 16:58:53 10° ESE
Cosmos 1500 Rocket 3.5 16:52:55 10° N 16:57:21 86° ENE 17:01:43 10° S
CZ-4 R/B 2.0 16:55:58 10° SE 16:59:45 34° ENE 17:03:30 10° N
Cosmos 1340 Rocket 3.8 16:57:16 10° SSW 17:01:09 49° WNW 17:05:07 10° N
Cosmos 1633 Rocket 4.1 17:00:18 10° NNE 17:03:50 23° ENE 17:07:22 10° ESE
COSMO-SKYMED 1 3.1 17:03:35 10° NNE 17:07:38 36° E 17:11:39 10° SSE
SeaSat 1 2.8 17:05:55 10° SSE 17:10:50 71° WSW 17:15:47 10° NNW
Cosmos 1869 3.6 17:07:31 10° SSE 17:11:15 41° E 17:15:00 10° NNE
Geosat 3.9 17:06:15 10° NNE 17:11:19 82° ESE 17:16:21 10° SSW
Cosmos 1437 4.5 17:09:09 10° NNW 17:12:00 34° W 17:14:49 10° SSW
Cosmos 1607 3.9 17:06:25 10° NW 17:12:36 68° NE 17:18:50 10° SE
Cosmos 1666 Rocket 4.2 17:08:41 10° N 17:12:40 32° ENE 17:16:35 10° SE
Cosmos 1825 4.1 17:13:29 10° NNW 17:16:53 32° W 17:20:17 10° SSW
Cosmos 1867 3.5 17:12:40 10° SSW 17:18:08 80° SE 17:22:42 15° NE
CZ-2D R/B 4.3 17:19:33 26° ENE 17:19:33 26° ENE 17:22:43 10° N
Cosmos 1939 Rocket 3.9 17:19:06 25° ENE 17:19:31 26° ENE 17:22:58 10° N
H-2A R/B 4.0 17:21:44 12° NE 17:21:44 12° NE 17:22:50 10° NNE
Sich 1 3.1 17:17:33 10° N 17:21:47 51° ENE 17:26:02 10° SSE
Cosmos 2219 3.2 17:16:46 10° NNW 17:22:26 85° WSW 17:28:03 10° SSE
GEOS 3 Rocket 3.9 17:17:33 11° NE 17:22:29 67° NW 17:27:41 10° SW
CSL-04 Debris 4.3 17:17:12 10° SE 17:22:32 54° ENE 17:27:53 10° N
NOAA 12 4.4 17:18:30 10° S 17:23:49 74° WSW 17:29:11 10° NNW
Cosmos 2034 Rocket 4.4 17:19:20 10° N 17:25:19 41° ENE 17:31:17 10° SE
Ariane Rocket 3.8 17:25:09 24° E 17:26:51 30° ENE 17:31:13 10° N
Cosmos 1656 4.1 17:22:37 10° S 17:27:43 38° ESE 17:30:21 24° ENE
Cosmos 2369 Rocket 4.4 17:27:13 10° W 17:31:06 19° NW 17:34:59 10° N
Cosmos 2084 3.6 17:27:18 10° NW 17:31:38 70° SW 17:35:49 10° SSE
CZ-3B R/B 3.6 17:33:21 10° W 17:35:44 38° NNW 17:36:31 32° NNE
FengYun 1-2 T 4.2 17:30:23 10° SSE 17:35:56 89° ENE 17:41:29 10° NNW
Okean-O 3.7 17:32:40 10° S 17:36:58 48° W 17:41:17 10° NNW
CENTAUR R/B 4.2 17:32:12 10° WNW 17:37:56 26° N 17:42:28 16° NE
YAOGAN 1 2.4 17:35:03 10° SSE 17:39:21 68° ENE 17:43:40 10° N
Meteor 2-2 Rocket 4.3 17:33:31 10° SSW 17:39:25 86° W 17:45:14 10° N
Cosmos 2344 4.0 17:32:33 10° WSW 17:39:59 64° NW 17:47:45 13° NE
Cosmos 773 Rocket 3.9 17:35:11 10° SSW 17:40:21 88° ESE 17:45:15 12° NNE
NOSS 7 (D) 4.3 17:40:23 10° SW 17:43:16 55° NW 17:43:33 51° NNW
CSL-04 Rocket 3.5 17:38:57 10° SSE 17:44:19 78° ENE 17:49:40 10° NNW
Cosmos 2227 Rocket 2.2 17:40:40 10° NNW 17:46:23 88° WSW 17:52:02 10° SSE
Cosmos 2297 Rocket 2.2 17:41:20 10° NNW 17:47:02 82° WSW 17:52:41 10° SSE
Cosmos 1633 2.4 17:46:45 10° N 17:50:25 79° E 17:52:46 21° SSE
Cosmos 1538 Rocket 3.9 17:45:31 10° SSW 17:50:46 84° ESE 17:54:54 17° NNE
Cosmos 2221 4.1 17:46:48 10° SW 17:50:47 36° WNW 17:54:50 10° N
Meteor 2-11 Rocket 4.4 17:45:59 10° N 17:52:02 60° ENE 17:58:04 10° SSE
ATLAS 3B R/B 4.2 17:47:40 10° NW 17:52:41 22° N 17:55:52 16° NNE
NOSS 8 (A) 4.2 17:50:24 10° SW 17:53:21 74° WSW 17:53:21 74° WSW
SKYMED 2 3.7 17:51:31 10° N 17:55:53 75° WNW 18:00:12 10° SSW
Cosmos 1862 3.1 17:52:33 10° N 17:56:32 75° E 17:57:45 43° SSE
IRS-1A Rocket 4.4 17:54:55 36° ESE 17:56:42 48° ENE 18:02:10 10° N
USA 116 3.9 17:56:24 24° NNE 17:59:04 78° ESE 18:03:55 10° S
Cosmos 2369 4.0 17:55:01 10° S 18:00:20 44° ESE 18:00:29 43° ESE
TRAILBLAZER 4.5 17:58:06 10° NW 18:02:46 85° NE 18:03:43 56° SE
YAOGAN 6 3.8 18:00:21 10° S 18:03:41 41° W 18:07:02 10° NNW
DMSP B5D1-3 4.4 18:05:46 40° NE 18:07:29 62° ESE 18:12:34 10° S
Cosmos 1356 Rocket 3.9 18:05:30 10° SSW 18:09:35 60° WNW 18:12:40 18° N
Cosmos 2082 3.6 18:06:14 10° NNW 18:11:54 88° WSW 18:14:50 30° SSE
Lacrosse 4 Rocket 3.2 18:08:45 10° S 18:10:04 19° S 18:10:04 19° S
Genesis I 3.9 18:09:53 10° WSW 18:13:48 50° NW 18:14:20 47° NNW
Cosmos 2263 Rocket 3.5 18:10:13 10° NNW 18:13:29 24° NNE 18:13:29 24° NNE
Gblst 52 Del rocket 4.5 18:09:16 10° W 18:16:09 74° NNW 18:17:47 51° ENE
Cosmos 1464 Rocket 4.2 18:10:06 10° NNW 18:16:15 68° W 18:22:18 10° S
BREEZE-M DEB (TANK) 3.8 18:14:31 10° SW 18:17:34 26° S 18:17:34 26° S
USA 215 3.2 18:21:36 44° SE 18:23:56 86° SW 18:30:32 10° NW
Cosmos 1697 Rocket 2.8 18:22:03 10° SSW 18:26:55 59° SSE 18:26:55 59° SSE
BREEZE-M DEB (TANK) 2.9 18:23:15 10° W 18:28:16 55° WNW 18:28:16 55° WNW
Cosmos 1371 Rocket 4.4 18:28:05 10° NNW 18:32:09 52° N 18:32:09 52° N
CZ-4 R/B 3.6 18:31:19 10° SSW 18:34:49 26° W 18:38:18 10° NW
USA 229 DEB 3.7 18:28:26 10° SW 18:35:03 76° NW 18:37:27 43° NNE
USA 229 3.7 18:28:34 10° SW 18:35:09 77° NW 18:37:30 44° NNE
Cosmos 724 4.1 18:30:15 10° NW 18:36:09 81° NE 18:36:09 81° NE
ATLAS 5 CENTAUR R/B 3.4 18:31:56 10° NW 18:37:26 44° WSW 18:42:11 17° S
NOSS 3-1 (A) 3.2 18:34:31 10° SSW 18:39:52 77° SSE 18:39:52 77° SSE
Cosmos 1633 Rocket 4.3 18:37:40 10° NNW 18:41:48 40° W 18:45:35 12° SSW
NOSS 3-1 (C) 3.5 18:36:35 10° SW 18:42:13 73° NW 18:43:21 58° NNE
MOS 1 4.3 18:44:55 67° N 18:44:55 67° N 18:49:49 10° NNW
H-2A R/B 3.9 19:02:21 22° N 19:02:21 22° N 19:04:12 10° N
Cosmos 1932 4.5 18:53:17 10° NW 18:59:37 82° W 18:59:37 82° W
Ariane Rocket 4.0 19:05:22 44° WSW 19:05:38 44° W 19:10:32 10° NNW
CENTAUR R/B 4.0 19:24:09 10° NW 19:29:38 33° N 19:29:38 33° N
ATLAS 3B R/B 4.3 19:39:48 10° NW 19:43:07 24° N 19:43:07 24° N
Cosmos 2263 Rocket 4.5 19:53:47 10° NNW 19:55:12 18° NW 19:55:12 18° NW
